Location: Sobotiste
(48.7170°N, 17.4000°E)
Time: 02:32:33
(UTC+02:00)

METEOR M2 - Pass Details

Date: 18 March 2026
Orbit: 817 x 824 km, 98.5° (Epoch: 13 April)

Event Time Altitude Azimuth Distance (km) Brightness Sun altitude
Rises 02:56:48 0° 27° (NNE) 3,372 ? -28.9°
Reaches altitude 10° 02:59:54 10° 45° (NE) 2,433 ? -28.5°
Maximum altitude 03:03:37 19° 89° (E) 1,890 ? -28.0°
Drops below altitude 10° 03:07:18 10° 133° (SE) 2,420 ? -27.5°
Sets 03:10:21 0° 151° (SSE) 3,346 ? -27.1°
